Date_and_time,latitude,longitude,wind_speed,RelWindDirFrom,WindDirFrom,air_pressure,air_temperature,relative_humidity,Temp,platform_speed_wrt_ground,air_pressure_at_mean_sea_level,platform_orientation
2019-08-27 23:40,50.6304433333333,-96.9807766666667,11.4,20.9,292,975.71,10.6,98,19.18,0.0,1002.19,125.3
2019-08-27 23:50,50.6304433333333,-96.980775,11.2,21.7,290,975.74,10.7,99,19.17,0.0,1002.21,125.3
2019-08-28 00:00,50.630445,-96.980775,14.1,26.9,295,975.57,10.7,97,19.15,0.0,1002.03,360.0
2019-08-28 00:10,50.630445,-96.980775,14.6,24.0,294,975.65,10.7,97,19.13,0.0,1002.10,360.0
2019-08-28 00:20,50.630445,-96.980775,13.4,24.7,292,975.76,10.8,98,19.11,0.0,1002.22,360.0
2019-08-28 00:30,50.6304466666667,-96.980775,14.5,23.9,294,975.70,10.8,97,19.08,0.0,1002.16,360.0
2019-08-28 00:40,50.6304466666667,-96.980775,12.8,23.5,292,975.82,10.7,98,19.07,0.0,1002.28,360.0
2019-08-28 00:50,50.6304483333333,-96.980775,11.6,19.5,292,975.94,10.8,99,19.05,0.0,1002.40,360.0
2019-08-28 01:00,50.6304483333333,-96.980775,13.4,23.0,292,975.90,10.8,98,19.02,0.0,1002.36,360.0
2019-08-28 01:10,50.6304733333333,-96.9807683333333,12.7,20.3,291,975.97,10.9,98,19.00,0.0,1002.44,360.0
2019-08-28 01:20,50.6304616666667,-96.9807733333333,13.7,24.4,294,975.98,10.9,97,18.99,0.0,1002.45,360.0
2019-08-28 01:30,50.6304616666667,-96.9807716666667,13.5,23.5,300,976.04,11.0,97,18.99,0.0,1002.51,360.0
2019-08-28 01:40,50.6304616666667,-96.98077,12.0,20.9,297,976.12,11.0,95,18.98,0.0,1002.59,360.0
2019-08-28 01:50,50.63046,-96.9807716666667,13.5,21.9,298,976.08,11.3,92,18.97,0.0,1002.53,360.0
2019-08-28 02:00,50.6304616666667,-96.9807716666667,13.5,25.1,301,976.14,11.4,91,18.96,0.0,1002.59,360.0
2019-08-28 02:10,50.6304616666667,-96.9807733333333,13.7,22.8,300,976.22,11.4,89,18.96,0.0,1002.67,360.0
2019-08-28 02:20,50.63046,-96.9807716666667,10.7,19.1,295,976.39,11.4,89,18.93,0.0,1002.84,360.0
2019-08-28 02:30,50.63046,-96.98077,14.8,25.5,299,976.18,11.6,87,18.88,0.0,1002.62,360.0
2019-08-28 02:40,50.63046,-96.98077,16.3,25.5,302,976.11,11.6,86,18.84,0.0,1002.55,360.0
2019-08-28 02:50,50.6304766666667,-96.9807816666667,15.7,25.4,304,976.18,11.6,85,18.82,0.0,1002.62,360.0
2019-08-28 03:00,50.63046,-96.9807666666667,15.0,25.6,303,976.25,11.5,84,18.82,0.0,1002.69,360.0
2019-08-28 03:10,50.6304633333333,-96.9807683333333,14.5,22.7,302,976.27,11.5,84,18.80,0.0,1002.71,360.0
2019-08-28 03:20,50.6304633333333,-96.9807716666667,15.8,24.0,304,976.27,11.5,85,18.80,0.0,1002.70,360.0
2019-08-28 03:30,50.6304633333333,-96.9807716666667,13.7,24.4,303,976.44,11.4,86,18.80,0.0,1002.88,360.0
2019-08-28 03:40,50.6304616666667,-96.9807716666667,12.4,22.9,300,976.55,11.4,86,18.79,0.0,1002.98,360.0
2019-08-28 03:50,50.6304616666667,-96.98077,14.1,28.3,299,976.49,11.4,87,18.77,0.0,1002.92,360.0
2019-08-28 04:00,50.6304583333333,-96.9807716666667,13.7,25.0,299,976.56,11.5,84,18.77,0.0,1002.98,360.0
2019-08-28 04:10,50.6304583333333,-96.9807716666667,13.8,20.4,302,976.62,11.4,86,18.76,0.0,1003.05,360.0
2019-08-28 04:20,50.6304583333333,-96.9807733333333,14.7,25.9,301,976.55,11.3,87,18.75,0.0,1002.97,360.0
2019-08-28 04:30,50.6304583333333,-96.9807733333333,12.0,19.8,301,976.72,11.3,88,18.72,0.0,1003.15,360.0
2019-08-28 04:40,50.6304583333333,-96.980775,13.9,23.9,302,976.61,11.3,88,18.70,0.0,1003.03,360.0
2019-08-28 04:50,50.6304583333333,-96.980775,14.2,24.5,306,976.57,11.3,89,18.69,0.0,1003.00,360.0
2019-08-28 05:00,50.6304566666667,-96.980775,12.2,23.9,303,976.63,11.4,86,18.68,0.0,1003.05,360.0
2019-08-28 05:10,50.6304566666667,-96.9807766666667,15.0,21.9,306,976.58,11.7,82,18.67,0.0,1002.99,360.0
2019-08-28 05:20,50.6304566666667,-96.9807766666667,12.1,21.8,307,976.79,11.8,81,18.65,0.0,1003.21,360.0
2019-08-28 05:30,50.630455,-96.9808066666667,12.7,23.8,300,976.72,11.9,78,18.62,0.0,1003.13,360.0
2019-08-28 05:40,50.630455,-96.9807866666667,14.7,24.9,304,976.59,12.0,77,18.60,0.0,1002.99,360.0
2019-08-28 05:50,50.6304583333333,-96.9807883333333,13.7,23.5,300,976.69,12.0,76,18.60,0.0,1003.09,360.0
2019-08-28 06:00,50.63046,-96.980775,12.7,21.0,302,976.78,12.1,76,18.59,0.0,1003.18,270.0
2019-08-28 06:10,50.6304566666667,-96.9807783333333,11.9,21.2,301,976.81,12.1,75,18.60,0.0,1003.21,270.0
2019-08-28 06:20,50.6304566666667,-96.9807783333333,11.5,19.6,298,976.84,12.2,74,18.59,0.0,1003.25,270.0
2019-08-28 06:30,50.6304566666667,-96.9807766666667,11.3,20.3,299,976.85,12.2,74,18.57,0.0,1003.25,270.0
2019-08-28 06:40,50.630455,-96.980775,12.6,23.2,301,976.82,12.3,73,18.54,0.0,1003.22,270.0
2019-08-28 06:50,50.630455,-96.9807633333333,13.4,21.0,301,976.79,12.3,72,18.53,0.0,1003.18,270.0
2019-08-28 07:00,50.6304583333333,-96.9807666666667,13.8,21.3,297,976.79,12.4,71,18.53,0.0,1003.16,90.0
2019-08-28 07:10,50.6304566666667,-96.9807683333333,11.6,18.0,299,976.93,12.5,71,18.52,0.0,1003.30,90.0
2019-08-28 07:20,50.6304566666667,-96.9807716666667,11.8,19.2,299,976.97,12.5,70,18.51,0.0,1003.33,90.0
2019-08-28 07:30,50.6304566666667,-96.9807733333333,12.0,20.7,296,977.02,12.5,70,18.50,0.0,1003.38,90.0
2019-08-28 07:40,50.6304566666667,-96.9807733333333,13.4,23.5,296,977.05,12.6,69,18.49,0.0,1003.41,90.0
2019-08-28 07:50,50.6304566666667,-96.980775,14.7,23.9,303,977.04,12.7,68,18.49,0.0,1003.39,90.0
2019-08-28 08:00,50.6304566666667,-96.9807733333333,12.4,20.2,300,977.20,12.7,68,18.50,0.0,1003.55,0.0
2019-08-28 08:10,50.6304566666667,-96.9807716666667,11.2,19.2,294,977.22,12.6,68,18.48,0.0,1003.57,0.0
2019-08-28 08:20,50.63045,-96.9808083333333,12.9,21.4,296,977.19,12.7,67,18.46,0.0,1003.53,0.0
2019-08-28 08:30,50.63046,-96.9807716666667,13.0,23.6,299,977.26,12.7,66,18.45,0.0,1003.61,0.0
2019-08-28 08:40,50.6304583333333,-96.9807766666667,11.3,19.0,294,977.39,12.7,66,18.44,0.0,1003.73,0.0
2019-08-28 08:50,50.6304533333333,-96.9807733333333,11.6,18.8,293,977.45,12.7,65,18.42,0.0,1003.79,0.0
2019-08-28 09:00,50.630455,-96.9807766666667,11.4,20.3,293,977.48,12.7,66,18.39,0.0,1003.82,360.0
2019-08-28 09:10,50.6304583333333,-96.98077,12.2,20.8,297,977.50,12.7,65,18.36,0.0,1003.84,360.0
2019-08-28 09:20,50.630455,-96.98077,11.6,18.1,293,977.62,12.7,65,18.39,0.0,1003.96,360.0
2019-08-28 09:30,50.630455,-96.9807683333333,10.7,16.6,294,977.67,12.7,65,18.41,0.0,1004.01,360.0
2019-08-28 09:40,50.6304533333333,-96.9807633333333,11.5,21.1,294,977.66,12.8,65,18.39,0.0,1003.99,360.0
2019-08-28 09:50,50.6304516666667,-96.9807616666667,12.6,23.5,293,977.65,12.9,64,18.38,0.0,1003.98,360.0
2019-08-28 10:00,50.63045,-96.9807633333333,10.9,16.4,294,977.77,12.9,64,18.38,0.0,1004.10,142.0
2019-08-28 10:10,50.6304516666667,-96.9807666666667,11.7,19.4,295,977.79,12.9,64,18.38,0.0,1004.12,142.0
2019-08-28 10:20,50.6304516666667,-96.9807683333333,10.7,17.6,293,977.88,12.9,63,18.39,0.0,1004.22,142.0
2019-08-28 10:30,50.6304516666667,-96.98077,11.4,17.6,294,977.92,12.9,63,18.40,0.0,1004.25,142.0
2019-08-28 10:40,50.6304516666667,-96.9807716666667,9.8,17.3,294,978.11,12.9,63,18.37,0.0,1004.45,142.0
2019-08-28 10:50,50.6304516666667,-96.9807716666667,11.0,17.6,294,978.10,12.9,62,18.36,0.0,1004.44,142.0
2019-08-28 11:00,50.63045,-96.9807716666667,10.3,16.6,295,978.17,12.9,62,18.35,0.0,1004.51,90.0
2019-08-28 11:10,50.6304516666667,-96.9807716666667,11.6,18.7,294,978.19,12.7,62,18.32,0.0,1004.54,90.0
2019-08-28 11:20,50.63045,-96.98077,11.1,18.2,296,978.36,12.5,62,18.30,0.0,1004.72,90.0
2019-08-28 11:30,50.6304516666667,-96.98077,10.6,19.0,294,978.57,12.3,63,18.29,0.0,1004.95,90.0
2019-08-28 11:40,50.6304516666667,-96.98077,9.1,17.3,289,978.80,12.0,65,18.28,0.0,1005.19,90.0
2019-08-28 11:50,50.6304516666667,-96.98077,7.9,13.4,286,978.96,11.7,67,18.29,0.0,1005.37,90.0
2019-08-28 12:00,50.6304516666667,-96.98077,7.4,13.1,284,979.12,11.5,69,18.30,0.0,1005.54,90.0
2019-08-28 12:10,50.6304516666667,-96.98077,7.3,11.9,274,979.23,11.5,71,18.32,0.0,1005.66,90.0
2019-08-28 12:20,50.6304516666667,-96.98077,8.6,13.7,282,979.25,11.4,71,18.31,0.0,1005.67,90.0
2019-08-28 12:30,50.6304516666667,-96.98077,8.3,14.5,276,979.35,11.5,72,18.29,0.0,1005.78,90.0
2019-08-28 12:40,50.6304516666667,-96.98077,9.1,16.1,273,979.42,11.3,74,18.27,0.0,1005.85,90.0
2019-08-28 12:50,50.6304516666667,-96.98077,9.3,16.0,273,979.42,11.3,74,18.27,0.0,1005.86,90.0
2019-08-28 13:00,50.6304516666667,-96.98077,9.4,15.9,275,979.45,11.6,74,18.28,0.0,1005.89,0.0
2019-08-28 13:10,50.6304533333333,-96.9807716666667,10.0,18.7,276,979.44,11.9,73,18.28,0.0,1005.87,0.0
2019-08-28 13:20,50.6304533333333,-96.9807716666667,10.5,17.4,279,979.45,12.1,72,18.28,0.0,1005.88,0.0
2019-08-28 13:30,50.6304183333333,-96.9807833333333,11.7,21.8,284,979.41,12.4,69,18.25,0.0,1005.84,0.0
2019-08-28 13:40,50.630445,-96.9807766666667,13.6,24.1,285,979.30,12.6,67,18.25,0.0,1005.73,0.0
2019-08-28 13:50,50.6304633333333,-96.9808166666667,11.6,18.8,281,979.46,12.8,67,18.27,0.0,1005.90,0.0
2019-08-28 14:00,50.6304516666667,-96.9808033333333,13.0,21.5,286,979.41,12.9,66,18.25,0.0,1005.84,270.0
2019-08-28 14:10,50.6304466666667,-96.9807683333333,13.3,22.4,283,979.46,13.1,65,18.22,0.0,1005.89,270.0
2019-08-28 14:20,50.6304466666667,-96.9807733333333,11.8,19.0,288,979.53,13.2,64,18.21,0.0,1005.95,270.0
2019-08-28 14:30,50.6304466666667,-96.980775,11.9,19.2,278,979.66,13.4,63,18.21,0.0,1006.08,270.0
2019-08-28 14:40,50.6304483333333,-96.9807733333333,11.4,19.2,293,979.60,13.5,64,18.21,0.0,1006.02,270.0
2019-08-28 14:50,50.63045,-96.9807733333333,10.2,20.7,281,979.72,13.7,64,18.22,0.0,1006.12,270.0
2019-08-28 15:00,50.6304483333333,-96.9807733333333,10.7,20.5,285,979.73,14.0,63,18.21,0.0,1006.10,192.6
2019-08-28 15:10,50.6304483333333,-96.980775,12.7,21.8,284,979.74,14.0,62,18.20,0.0,1006.09,192.6
2019-08-28 15:20,50.630465,-96.9807883333333,10.1,18.1,282,979.87,14.1,63,18.20,0.0,1006.21,192.6
2019-08-28 15:30,50.63044,-96.9807633333333,11.5,21.1,282,979.81,14.3,61,18.20,0.0,1006.13,192.6
2019-08-28 15:40,50.6304416666667,-96.9807666666667,11.3,19.6,286,979.80,14.4,60,18.19,0.0,1006.11,192.6
2019-08-28 15:50,50.630445,-96.9807716666667,11.3,20.8,287,979.81,14.6,59,18.19,0.0,1006.11,192.6
2019-08-28 16:00,50.6304433333333,-96.980775,11.6,18.0,291,979.78,14.7,56,18.19,0.0,1006.07,360.0
2019-08-28 16:10,50.6304516666667,-96.98079,10.6,19.6,277,979.92,15.0,56,18.19,0.0,1006.18,360.0
2019-08-28 16:20,50.6304516666667,-96.98079,12.4,19.3,283,979.89,15.2,51,18.21,0.0,1006.14,360.0
2019-08-28 16:30,50.63045,-96.98079,10.9,19.2,283,980.00,15.4,51,18.24,0.0,1006.24,360.0
2019-08-28 16:40,50.63045,-96.98079,12.0,18.7,272,979.97,15.6,51,18.26,0.0,1006.19,360.0
2019-08-28 16:50,50.63045,-96.9807883333333,11.4,20.1,274,979.88,16.1,47,18.28,0.0,1006.06,360.0
2019-08-28 17:00,50.63045,-96.9807866666667,9.1,19.9,276,979.82,16.3,48,18.30,0.0,1005.99,90.0
2019-08-28 17:10,50.63045,-96.9807866666667,11.4,19.6,289,979.69,16.5,45,18.30,0.0,1005.84,90.0
2019-08-28 17:20,50.63045,-96.980785,10.8,18.1,278,979.75,16.6,44,18.32,0.0,1005.89,90.0
2019-08-28 17:30,50.6304483333333,-96.980785,9.1,13.7,266,979.90,17.0,45,18.35,0.0,1006.02,90.0
2019-08-28 17:40,50.6304416666667,-96.980775,10.6,18.3,265,979.88,17.2,44,18.37,0.0,1005.98,90.0
2019-08-28 17:50,50.6304483333333,-96.980775,10.0,18.6,271,979.75,17.3,44,18.41,0.0,1005.84,90.0
2019-08-28 18:00,50.6304516666667,-96.9807783333333,11.3,17.5,274,979.66,17.3,43,18.45,0.0,1005.73,305.3
2019-08-28 18:10,50.6304433333333,-96.98076,9.9,17.1,269,979.62,17.7,42,18.47,0.0,1005.67,305.3
2019-08-28 18:20,50.630445,-96.98077,11.0,19.2,272,979.59,17.8,40,18.48,0.0,1005.62,305.3
2019-08-28 18:30,50.6304483333333,-96.9807783333333,10.5,18.5,283,979.46,18.2,40,18.51,0.0,1005.46,305.3
2019-08-28 18:40,50.630445,-96.9807766666667,10.9,21.3,279,979.47,18.3,40,18.55,0.0,1005.44,305.3
2019-08-28 18:50,50.6304416666667,-96.9807833333333,12.7,21.3,268,979.57,18.5,40,18.60,0.0,1005.53,305.3
2019-08-28 19:00,50.6304283333333,-96.980795,11.4,18.0,266,979.61,18.5,40,18.63,0.0,1005.56,228.4
2019-08-28 19:10,50.6304416666667,-96.9807883333333,11.0,19.7,283,979.47,18.8,39,18.65,0.0,1005.40,228.4
2019-08-28 19:20,50.630445,-96.9807816666667,11.4,19.3,273,979.47,19.0,39,18.68,0.0,1005.38,228.4
2019-08-28 19:30,50.6304466666667,-96.9807816666667,12.5,20.0,286,979.28,19.3,36,18.70,0.0,1005.16,228.4
2019-08-28 19:40,50.6304466666667,-96.9807816666667,13.5,24.5,272,979.26,19.4,36,18.73,0.0,1005.12,228.4
2019-08-28 19:50,50.6304483333333,-96.9807816666667,11.4,18.0,293,979.16,19.7,37,18.74,0.0,1005.00,228.4
2019-08-28 20:00,50.6304466666667,-96.9807816666667,11.5,19.4,269,979.29,20.0,36,18.75,0.0,1005.10,167.4
2019-08-28 20:10,50.6304483333333,-96.9807816666667,14.9,23.7,263,979.23,20.1,36,18.76,0.0,1005.03,167.4
2019-08-28 20:20,50.6304466666667,-96.9807816666667,13.5,23.8,273,979.13,20.0,37,18.77,0.0,1004.93,167.4
2019-08-28 20:30,50.6304716666667,-96.9807983333333,11.9,20.9,287,979.08,20.2,37,18.79,0.0,1004.85,167.4
2019-08-28 20:40,50.6304516666667,-96.980775,14.1,22.6,268,979.23,20.3,37,18.80,0.0,1004.99,167.4
2019-08-28 20:50,50.63045,-96.9807733333333,13.2,20.9,275,978.97,20.4,37,18.81,0.0,1004.73,167.4
2019-08-28 21:00,50.63045,-96.980775,13.5,22.0,278,978.84,20.3,37,18.81,0.0,1004.59,90.0
2019-08-28 21:10,50.63045,-96.980775,13.2,21.9,295,978.67,20.1,38,18.83,0.0,1004.41,90.0
2019-08-28 21:20,50.6304483333333,-96.9807733333333,11.0,18.2,290,978.67,20.0,39,18.83,0.0,1004.40,90.0
2019-08-28 21:30,50.6304483333333,-96.9807716666667,6.6,12.3,280,978.81,20.0,40,18.82,0.0,1004.53,90.0
2019-08-28 21:40,50.6304316666667,-96.980795,7.3,14.8,266,978.80,20.2,40,18.80,0.0,1004.50,90.0
2019-08-28 21:50,50.63046,-96.9807783333333,10.4,16.6,267,978.73,20.2,39,18.78,0.0,1004.43,90.0
2019-08-28 22:00,50.6304566666667,-96.9807833333333,8.2,13.6,270,978.62,20.1,41,18.78,0.0,1004.31,20.1
2019-08-28 22:10,50.630455,-96.9807866666667,7.4,13.1,260,978.56,20.4,41,18.77,0.0,1004.24,20.1
2019-08-28 22:20,50.6304516666667,-96.9807866666667,9.6,15.4,250,978.34,20.4,42,18.76,0.0,1004.01,20.1
2019-08-28 22:30,50.6304516666667,-96.9807866666667,8.8,12.5,243,978.24,20.3,42,18.76,0.0,1003.90,20.1
2019-08-28 22:40,50.6304516666667,-96.980785,9.7,17.0,256,978.13,20.4,42,18.75,0.0,1003.79,20.1
2019-08-28 22:50,50.6304516666667,-96.9807866666667,7.7,11.9,240,978.19,20.3,43,18.76,0.0,1003.85,20.1
2019-08-28 23:00,50.6304516666667,-96.9807866666667,10.1,16.4,237,978.16,20.2,44,18.76,0.0,1003.83,347.4
2019-08-28 23:10,50.6304516666667,-96.9807866666667,9.8,15.0,233,978.04,20.0,44,18.77,0.0,1003.72,347.4
2019-08-28 23:20,50.6304516666667,-96.980785,9.2,14.0,230,977.75,19.9,45,18.77,0.0,1003.43,347.4
2019-08-28 23:30,50.6304516666667,-96.980785,7.7,12.2,234,977.74,19.9,45,18.76,0.0,1003.41,347.4
2019-08-28 23:40,50.6304433333333,-96.9807666666667,7.9,11.7,226,977.70,19.7,46,18.76,0.0,1003.38,347.4
2019-08-28 23:50,50.6304483333333,-96.9807783333333,6.5,11.5,221,977.46,19.5,47,18.75,0.0,1003.14,347.4
